Regional Weather Roundup
Issued by NWS

Home | Current Version | Previous Version | Graphics & Text | Print | Product List | Glossary On
Versions: 1 2 3 4 5 6 7 8 9 10 11 12 13 14 15 16 17 18 19 20 21 22 23 24 25 26 27 28 29 30 31 32 33 34 35 36 37 38 39 40 41 42 43 44 45 46 47 48 49 50
524
ASUS43 KFSD 221010
RWRSD

WEATHER ROUNDUP FOR SOUTH DAKOTA
NATIONAL WEATHER SERVICE SIOUX FALLS SD
500 AM CDT MON MAY 22 2017

NOTE: "FAIR" INDICATES FEW OR NO CLOUDS BELOW 12,000 FEET WITH NO
SIGNIFICANT WEATHER AND/OR OBSTRUCTIONS TO VISIBILITY.


SDZ001>005-009-010-012>017-221100-
NORTHWEST AND NORTH CENTRAL SOUTH DAKOTA

CITY           SKY/WX    TMP DP  RH WIND       PRES   REMARKS
BUFFALO          N/A     47  45  93 W10       29.94F
FAITH            N/A     50  42  74 NW18      29.97S
MOBRIDGE       CLEAR     46  39  76 W7        29.87S
$$

SDZ012>016-024>037-041>051-057-063-072>074-221100-
SOUTHWEST AND SOUTH CENTRAL SOUTH DAKOTA

CITY           SKY/WX    TMP DP  RH WIND       PRES   REMARKS
RAPID CTY ARPT MOCLDY    44  37  76 CALM      30.00F
PIERRE         CLEAR     45  41  86 SW9       29.92F
CUSTER         CLOUDY    39  32  76 W8        30.08F
ELLSWORTH AFB  CLOUDY    50  39  66 NW13      30.02F
PHILIP         PTCLDY    41  39  93 SW9       29.98F
PINE RIDGE     CLEAR     42  40  92 W5        30.06F
SPEARFISH      CLOUDY    48  39  71 NW10G16   30.06R
WINNER         FAIR      48  42  80 W9        29.97F
$$

SDZ004>011-016>023-039-040-221100-
NORTHEAST SOUTH DAKOTA

CITY           SKY/WX    TMP DP  RH WIND       PRES   REMARKS
ABERDEEN       PTCLDY    35  33  92 NE3       29.87F FOG
WATERTOWN      CLEAR     37  36  96 CALM      29.88S
BROOKINGS      CLEAR     44  41  89 S3        29.89S
SISSETON         N/A     39  38  96 NW8       29.89R
$$

SDZ017-020-022-023-036>040-048>070-221100-
SOUTHEAST SOUTH DAKOTA

CITY           SKY/WX    TMP DP  RH WIND       PRES   REMARKS
SIOUX FALLS    CLOUDY    53  46  77 VRB5      29.90F
HURON          CLEAR     47  41  80 W6        29.89F
CHAMBERLAIN    CLEAR     48  45  90 W8        29.95F
MITCHELL       CLEAR     48  45  89 W10       29.92S
YANKTON        MOCLDY    56  46  69 S12       29.92F
$$

ABBREVIATIONS USED IN REMARKS
   TC - TEMPERATURE IN CELSIUS
  WCI - WIND CHILL INDEX
   HX - HEAT INDEX
  VSB - VISIBILITY





USA.gov is the U.S. government's official web portal to all federal, state and local government web resources and services.